Tampa, FL

1:39 PM EDT on March 24, 2017 (GMT -0400)
Tampa International

Weather History for KTPA - November, 2010

Change the Weather History Date:

Tuesday, November 16, 2010

  Actual Average Record
Temperature  
Mean Temperature 73 °F 69 °F  
Max Temperature 80 °F 78 °F 88 °F (1958)
Min Temperature 66 °F 60 °F 31 °F (1940)
Degree Days  
Heating Degree Days 0 1  
Month to date heating degree days 24 14  
Since 1 July heating degree days 24 18  
Cooling Degree Days 8 5  
Month to date cooling degree days 61 103  
Year to date cooling degree days 3573 3469  
Growing Degree Days 22 (Base 50)    
Moisture  
Dew Point 64 °F    
Average Humidity 77    
Maximum Humidity 90    
Minimum Humidity 64    
Precipitation  
Precipitation 0.35 in 0.05 in 2.30 in (1951)
Month to date precipitation 2.02 0.82  
Year to date precipitation 39.75 43.10  
Sea Level Pressure  
Sea Level Pressure 29.92 in    
Wind  
Wind Speed 9 mph (South)    
Max Wind Speed 17 mph    
Max Gust Speed 23 mph    
Visibility 9 miles    
Events Rain , Thunderstorm    
T = Trace of Precipitation, MM = Missing Value Source: NWS Daily Summary

Daily Weather History Graph

Daily Weather History Graph

Search for Another Location

Airport or City:

Trip Planner

Search our weather history database for the weather conditions in past years. The results will help you decide how hot, cold, wet, or windy it might be!

Date:

Astronomy

Nov. 16, 2010 Rise Set
Actual Time 6:52 AM EST 5:37 PM EST
Civil Twilight 6:27 AM EST 6:01 PM EST
Nautical Twilight 5:59 AM EST 6:30 PM EST
Astronomical Twilight 5:31 AM EST 6:58 PM EST
Moon 2:24 PM EST (11/16) 2:15 AM EST (11/16)
Length of Visible Light 11h 34m
Length of Day
10h 44m
Waxing Gibbous, 77% of the Moon is Illuminated
Nov 16
Waxing Gibbous
Nov 21
Full
Nov 28
Last Quarter
Dec 5
New
Dec 13
First Quarter

Hourly Weather History & Observations

Time (EST) Temp. Dew Point Humidity Pressure Visibility Wind Dir Wind Speed Gust Speed Precip Events Conditions
12:53 AM 66.9 °F 60.1 °F 79% 29.91 in 10.0 mi SE 5.8 mph - N/A   Partly Cloudy
1:53 AM 66.9 °F 60.1 °F 79% 29.88 in 10.0 mi SE 3.5 mph - N/A   Clear
2:53 AM 66.9 °F 60.1 °F 79% 29.87 in 10.0 mi Variable 6.9 mph - N/A   Clear
3:53 AM 68.0 °F 59.0 °F 73% 29.88 in 10.0 mi SSE 5.8 mph - N/A   Partly Cloudy
4:53 AM 66.0 °F 59.0 °F 78% 29.89 in 10.0 mi SSE 4.6 mph - N/A   Scattered Clouds
5:53 AM 66.9 °F 60.1 °F 79% 29.88 in 10.0 mi SSE 8.1 mph - N/A   Scattered Clouds
6:53 AM 66.9 °F 60.1 °F 79% 29.91 in 10.0 mi South 5.8 mph - N/A   Mostly Cloudy
7:53 AM 68.0 °F 61.0 °F 78% 29.92 in 10.0 mi SSE 9.2 mph - N/A   Overcast
8:53 AM 71.1 °F 62.1 °F 73% 29.93 in 10.0 mi South 8.1 mph 17.3 mph N/A   Mostly Cloudy
9:53 AM 75.0 °F 64.0 °F 69% 29.93 in 10.0 mi South 13.8 mph 19.6 mph N/A   Scattered Clouds
10:53 AM 77.0 °F 64.9 °F 66% 29.93 in 10.0 mi South 10.4 mph - N/A   Scattered Clouds
11:53 AM 79.0 °F 66.0 °F 64% 29.91 in 10.0 mi South 12.7 mph - N/A   Scattered Clouds
12:53 PM 79.0 °F 66.0 °F 64% 29.89 in 10.0 mi South 13.8 mph - N/A   Scattered Clouds
1:53 PM 79.0 °F 66.0 °F 64% 29.88 in 10.0 mi South 15.0 mph 20.7 mph N/A   Scattered Clouds
2:53 PM 78.1 °F 66.0 °F 66% 29.88 in 10.0 mi South 16.1 mph 23.0 mph N/A   Scattered Clouds
3:53 PM 77.0 °F 66.9 °F 71% 29.88 in 10.0 mi South 12.7 mph - N/A   Mostly Cloudy
4:53 PM 73.9 °F 66.9 °F 79% 29.89 in 10.0 mi South 12.7 mph - N/A   Scattered Clouds
5:53 PM 73.0 °F 68.0 °F 84% 29.89 in 10.0 mi South 10.4 mph - N/A   Partly Cloudy
6:53 PM 72.0 °F 68.0 °F 87% 29.91 in 10.0 mi South 9.2 mph - N/A   Scattered Clouds
7:53 PM 71.1 °F 66.0 °F 84% 29.95 in 8.0 mi West 16.1 mph 21.9 mph 0.00 in Rain Light Rain
7:59 PM 69.8 °F 66.2 °F 88% 29.97 in 2.0 mi WSW 15.0 mph - 0.01 in Rain Rain
8:01 PM 69.8 °F 66.2 °F 88% 29.96 in 2.0 mi WSW 12.7 mph - 0.07 in Rain Heavy Rain
8:03 PM 69.8 °F 66.2 °F 88% 29.96 in 2.0 mi WSW 12.7 mph - 0.13 in Rain Heavy Rain
8:08 PM 68.0 °F 66.2 °F 94% 29.96 in 2.0 mi SW 12.7 mph - 0.26 in Rain , Thunderstorm Heavy Thunderstorms and Rain
8:11 PM 68.0 °F 64.4 °F 88% 29.95 in 5.0 mi SW 11.5 mph - 0.31 in Rain , Thunderstorm Heavy Thunderstorms and Rain
8:21 PM 69.8 °F 66.2 °F 88% 29.95 in 7.0 mi SW 5.8 mph - 0.35 in Rain Light Rain
8:53 PM 69.1 °F 66.9 °F 93% 29.96 in 10.0 mi Calm Calm - 0.35 in   Mostly Cloudy
9:53 PM 69.1 °F 66.0 °F 90% 29.98 in 10.0 mi South 6.9 mph - N/A   Overcast
10:53 PM 68.0 °F 64.9 °F 90% 29.98 in 10.0 mi South 5.8 mph - N/A   Scattered Clouds
11:53 PM 69.1 °F 66.0 °F 90% 29.98 in 10.0 mi SSE 4.6 mph - N/A   Mostly Cloudy